Weather History for Millville, NJ

Change the Weather History Date:

Friday, June 14, 2013

  Actual Average Record
Temperature  
Mean Temperature 64 °F -  
Max Temperature 73 °F 79 °F 97 °F (1956)
Min Temperature 55 °F 58 °F 45 °F (1965)
Degree Days  
Heating Degree Days 1    
Growing Degree Days 14 (Base 50)    
Moisture  
Dew Point 56 °F    
Average Humidity 84    
Maximum Humidity 94    
Minimum Humidity 48    
Precipitation  
Precipitation 0.44 in - - ()
Sea Level Pressure  
Sea Level Pressure 29.74 in    
Wind  
Wind Speed 10 mph (NNW)    
Max Wind Speed 16 mph    
Max Gust Speed 26 mph    
Visibility 7 miles    
Events Rain , Thunderstorm    
Averages and records for this station are not official NWS values.
T = Trace of Precipitation, MM = Missing Value Source: NWS Daily Summary

Daily Weather History Graph

Daily Weather History Graph

Search for Another Location

Airport:

Trip Planner

Search our weather history database for the weather conditions in past years. The results will help you decide how hot, cold, wet, or windy it might be!

Date:

Astronomy

Jun. 14, 2013 Rise Set
Actual Time 5:32 AM EDT 8:28 PM EDT
Civil Twilight 5:00 AM EDT 9:00 PM EDT
Nautical Twilight 4:19 AM EDT 9:41 PM EDT
Astronomical Twilight 3:32 AM EDT 10:29 PM EDT
Moon 11:04 AM EDT (6/14) No Moon Set
Length of Visible Light 16h 00m
Length of Day
14h 55m
Waxing Crescent, 30% of the Moon is Illuminated
Jun 14
Waxing Crescent
Jun 16
First Quarter
Jun 23
Full
Jun 30
Last Quarter
Jul 8
New

Hourly Weather History & Observations

Time (EDT) Temp. Dew Point Humidity Pressure Visibility Wind Dir Wind Speed Gust Speed Precip Events Conditions
12:15 AM 66.2 °F 62.6 °F 88% 29.50 in 10.0 mi West 10.4 mph - N/A   Overcast
12:34 AM 66.2 °F 62.6 °F 88% 29.50 in 10.0 mi West 11.5 mph 18.4 mph N/A   Overcast
12:54 AM 66.0 °F 63.0 °F 90% 29.50 in 7.0 mi West 11.5 mph - 0.00 in Rain Light Rain
1:19 AM 66.2 °F 62.6 °F 88% 29.50 in 9.0 mi North 13.8 mph 20.7 mph 0.00 in Rain Light Rain
1:23 AM 64.4 °F 60.8 °F 88% 29.51 in 6.0 mi North 16.1 mph 26.5 mph 0.00 in Rain Light Rain
1:54 AM 62.1 °F 59.0 °F 90% 29.54 in 4.0 mi North 11.5 mph 19.6 mph 0.00 in Rain Light Rain
2:14 AM 60.8 °F 55.4 °F 82% 29.56 in 10.0 mi North 15.0 mph 23.0 mph 0.00 in   Overcast
2:42 AM 60.8 °F 55.4 °F 82% 29.56 in 10.0 mi North 12.7 mph 21.9 mph 0.00 in   Overcast
2:54 AM 59.0 °F 55.9 °F 90% 29.57 in 10.0 mi North 15.0 mph 21.9 mph 0.00 in   Overcast
3:04 AM 59.0 °F 55.4 °F 88% 29.58 in 7.0 mi North 12.7 mph - N/A   Overcast
3:11 AM 59.0 °F 55.4 °F 88% 29.59 in 10.0 mi North 11.5 mph 19.6 mph N/A   Overcast
3:23 AM 59.0 °F 55.4 °F 88% 29.61 in 6.0 mi NNW 10.4 mph - 0.00 in Rain Light Rain
3:40 AM 57.2 °F 55.4 °F 94% 29.61 in 10.0 mi North 11.5 mph 20.7 mph 0.01 in   Overcast
3:54 AM 57.9 °F 54.0 °F 87% 29.61 in 10.0 mi North 11.5 mph 21.9 mph 0.01 in   Overcast
4:24 AM 57.2 °F 53.6 °F 88% 29.63 in 10.0 mi North 10.4 mph - N/A   Overcast
4:35 AM 57.2 °F 53.6 °F 88% 29.63 in 10.0 mi North 10.4 mph - N/A   Overcast
4:54 AM 57.0 °F 54.0 °F 89% 29.63 in 6.0 mi North 11.5 mph - 0.00 in Rain Light Rain
5:41 AM 57.2 °F 53.6 °F 88% 29.66 in 6.0 mi North 8.1 mph - 0.00 in Rain Light Rain
5:49 AM 57.2 °F 53.6 °F 88% 29.66 in 8.0 mi North 9.2 mph - 0.00 in Rain Light Rain
5:54 AM 57.0 °F 54.0 °F 89% 29.67 in 8.0 mi NNW 9.2 mph - 0.00 in Rain Light Rain
6:04 AM 57.2 °F 53.6 °F 88% 29.67 in 10.0 mi North 10.4 mph 18.4 mph 0.01 in Rain Light Rain
6:54 AM 55.9 °F 53.1 °F 90% 29.69 in 7.0 mi NNW 13.8 mph 19.6 mph 0.02 in Rain Light Rain
7:37 AM 55.4 °F 53.6 °F 94% 29.72 in 2.5 mi North 8.1 mph - 0.02 in Rain Rain
7:54 AM 55.9 °F 53.1 °F 90% 29.73 in 3.0 mi North 9.2 mph - 0.05 in Rain Light Rain
8:01 AM 55.4 °F 53.6 °F 94% 29.74 in 4.0 mi North 11.5 mph - 0.01 in Rain Light Rain
8:13 AM 55.4 °F 53.6 °F 94% 29.75 in 2.5 mi North 9.2 mph - 0.01 in Rain Light Rain
8:36 AM 55.4 °F 53.6 °F 94% 29.76 in 2.0 mi NNW 9.2 mph - 0.01 in Rain Light Rain
8:44 AM 55.4 °F 53.6 °F 94% 29.77 in 1.8 mi NNW 9.2 mph - 0.02 in Rain Light Rain
8:52 AM 55.4 °F 53.6 °F 94% 29.77 in 2.5 mi North 11.5 mph 18.4 mph 0.02 in Rain Light Rain
8:54 AM 55.9 °F 53.1 °F 90% 29.77 in 3.0 mi North 12.7 mph 18.4 mph 0.02 in Rain Light Rain
9:21 AM 55.4 °F 53.6 °F 94% 29.79 in 2.5 mi NNW 10.4 mph - 0.02 in Rain Light Rain
9:37 AM 55.4 °F 53.6 °F 94% 29.80 in 2.5 mi NNW 11.5 mph - 0.03 in Rain Light Rain
9:54 AM 57.0 °F 54.0 °F 89% 29.80 in 3.0 mi NNW 10.4 mph - 0.03 in Rain Light Rain
10:54 AM 60.1 °F 55.0 °F 83% 29.82 in 10.0 mi NNW 9.2 mph - 0.00 in   Overcast
11:30 AM 60.8 °F 53.6 °F 77% 29.83 in 10.0 mi North 11.5 mph - 0.00 in   Overcast
11:39 AM 60.8 °F 53.6 °F 77% 29.84 in 10.0 mi North 8.1 mph - 0.00 in   Mostly Cloudy
11:54 AM 62.1 °F 52.0 °F 70% 29.84 in 10.0 mi North 10.4 mph - 0.00 in   Mostly Cloudy
12:54 PM 66.9 °F 51.1 °F 57% 29.84 in 10.0 mi NNE 13.8 mph 18.4 mph 0.01 in   Overcast
1:54 PM 69.1 °F 51.1 °F 53% 29.85 in 10.0 mi NNW 12.7 mph - N/A   Scattered Clouds
2:54 PM 70.0 °F 51.1 °F 51% 29.86 in 10.0 mi NW 4.6 mph - N/A   Mostly Cloudy
3:54 PM 73.0 °F 52.0 °F 48% 29.84 in 10.0 mi WNW 5.8 mph - N/A   Partly Cloudy
4:54 PM 73.0 °F 54.0 °F 51% 29.83 in 10.0 mi West 6.9 mph - N/A   Scattered Clouds
5:54 PM 70.0 °F 55.0 °F 59% 29.84 in 5.0 mi East 3.5 mph - 0.00 in Rain Light Rain
6:05 PM 66.2 °F 57.2 °F 73% 29.84 in 1.8 mi East 4.6 mph - 0.12 in Rain Heavy Rain
6:14 PM 62.6 °F 57.2 °F 82% 29.82 in 0.8 mi SSW 6.9 mph - 0.25 in Rain Light Rain
6:18 PM 64.4 °F 57.2 °F 77% 29.82 in 2.0 mi SSW 5.8 mph - 0.25 in Rain Light Rain
6:25 PM 66.2 °F 60.8 °F 83% 29.83 in 10.0 mi West 3.5 mph - 0.25 in Rain Light Rain
6:54 PM 66.9 °F 61.0 °F 81% 29.83 in 10.0 mi SSW 3.5 mph - 0.25 in   Partly Cloudy
7:11 PM 66.2 °F 57.2 °F 73% 29.86 in 10.0 mi East 8.1 mph 20.7 mph 0.01 in Thunderstorm Mostly Cloudy
7:45 PM 64.4 °F 60.8 °F 88% 29.86 in 10.0 mi Calm Calm - 0.01 in   Clear
7:54 PM 64.0 °F 60.1 °F 87% 29.86 in 10.0 mi SSE 3.5 mph - 0.01 in   Partly Cloudy
8:33 PM 62.6 °F 59.0 °F 88% 29.88 in 10.0 mi ESE 3.5 mph - 0.03 in Rain , Thunderstorm Light Rain
8:47 PM 62.6 °F 59.0 °F 88% 29.89 in 10.0 mi ESE 3.5 mph - 0.03 in   Partly Cloudy
8:54 PM 62.1 °F 59.0 °F 90% 29.89 in 10.0 mi ESE 3.5 mph - 0.03 in   Partly Cloudy
9:54 PM 60.1 °F 57.9 °F 93% 29.91 in 5.0 mi Calm Calm - N/A   Clear
10:54 PM 57.9 °F 55.9 °F 93% 29.93 in 10.0 mi West 3.5 mph - 0.01 in   Clear
11:54 PM 57.9 °F 55.9 °F 93% 29.94 in 8.0 mi Calm Calm - N/A   Clear